Time,TemperatureF,DewpointF,PressureIn,WindDirection,WindDirectionDegrees,WindSpeedMPH,WindSpeedGustMPH,Humidity,HourlyPrecipIn,Conditions,Clouds,dailyrainin,SolarRadiationWatts/m^2,SoftwareType,DateUTC
2013-11-29 00:00:00,25.3,21.7,30.31,SSW,207,0.0,0.0,86,0.00,,,0.00,0,Wunderground v.1.15,2013-11-29 08:00:00,
2013-11-29 00:10:00,25.3,22.0,30.32,SSW,207,0.0,0.0,87,0.00,,,0.00,0,Wunderground v.1.15,2013-11-29 08:10:00,
2013-11-29 00:15:00,25.7,22.4,30.32,SSW,207,0.0,0.0,87,0.00,,,0.00,0,Wunderground v.1.15,2013-11-29 08:15:00,
2013-11-29 00:20:00,25.9,22.3,30.32,SSW,207,0.0,0.0,86,0.00,,,0.00,0,Wunderground v.1.15,2013-11-29 08:20:00,
2013-11-29 00:30:00,26.0,22.1,30.32,SSW,207,0.0,0.0,85,0.00,,,0.00,0,Wunderground v.1.15,2013-11-29 08:30:00,
2013-11-29 00:40:00,25.8,21.6,30.32,SSW,207,0.0,0.0,84,0.00,,,0.00,0,Wunderground v.1.15,2013-11-29 08:40:00,
2013-11-29 00:45:00,25.9,21.7,30.32,SSW,207,0.0,0.0,84,0.00,,,0.00,0,Wunderground v.1.15,2013-11-29 08:45:00,
2013-11-29 00:50:00,25.6,21.4,30.32,SSW,206,0.0,0.0,84,0.00,,,0.00,0,Wunderground v.1.15,2013-11-29 08:50:00,
2013-11-29 00:55:00,25.4,21.2,30.32,SSW,205,0.0,0.0,84,0.00,,,0.00,0,Wunderground v.1.15,2013-11-29 08:55:00,
2013-11-29 01:00:00,25.1,20.9,30.32,SSW,205,0.0,0.0,84,0.00,,,0.00,0,Wunderground v.1.15,2013-11-29 09:00:00,
2013-11-29 01:10:00,24.9,21.0,30.32,SSW,205,0.0,0.0,85,0.00,,,0.00,0,Wunderground v.1.15,2013-11-29 09:10:00,
2013-11-29 01:15:00,24.6,20.7,30.32,SSW,205,0.0,0.0,85,0.00,,,0.00,0,Wunderground v.1.15,2013-11-29 09:15:00,
2013-11-29 01:25:00,24.5,20.9,30.32,SSW,205,0.0,0.0,86,0.00,,,0.00,0,Wunderground v.1.15,2013-11-29 09:25:00,
2013-11-29 01:30:00,24.4,20.5,30.33,SSW,205,0.0,0.0,85,0.00,,,0.00,0,Wunderground v.1.15,2013-11-29 09:30:00,
2013-11-29 01:40:00,24.4,20.8,30.33,SSW,204,0.0,0.0,86,0.00,,,0.00,0,Wunderground v.1.15,2013-11-29 09:40:00,
2013-11-29 01:45:00,24.5,20.6,30.33,SSW,203,0.0,0.0,85,0.00,,,0.00,0,Wunderground v.1.15,2013-11-29 09:45:00,
2013-11-29 01:50:00,24.8,21.2,30.33,SSW,203,0.0,0.0,86,0.00,,,0.00,0,Wunderground v.1.15,2013-11-29 09:50:00,
2013-11-29 01:55:00,24.8,20.9,30.33,SSW,203,0.0,0.0,85,0.00,,,0.00,0,Wunderground v.1.15,2013-11-29 09:55:00,
2013-11-29 02:00:00,24.7,20.8,30.33,SSW,203,0.0,0.0,85,0.00,,,0.00,0,Wunderground v.1.15,2013-11-29 10:00:00,
2013-11-29 02:10:00,24.4,20.5,30.34,SSW,203,0.0,0.0,85,0.00,,,0.00,0,Wunderground v.1.15,2013-11-29 10:10:00,
2013-11-29 02:15:00,24.4,20.8,30.34,SSW,203,0.0,0.0,86,0.00,,,0.00,0,Wunderground v.1.15,2013-11-29 10:15:00,
2013-11-29 02:25:00,24.4,20.5,30.34,SSW,203,0.0,0.0,85,0.00,,,0.00,0,Wunderground v.1.15,2013-11-29 10:25:00,
2013-11-29 02:30:00,24.4,20.8,30.34,SSW,203,0.0,0.0,86,0.00,,,0.00,0,Wunderground v.1.15,2013-11-29 10:30:00,
2013-11-29 02:35:00,24.0,20.1,30.34,SSW,203,0.0,0.0,85,0.00,,,0.00,0,Wunderground v.1.15,2013-11-29 10:35:00,
2013-11-29 02:45:00,24.4,20.8,30.34,SSW,203,0.0,0.0,86,0.00,,,0.00,0,Wunderground v.1.15,2013-11-29 10:45:00,
2013-11-29 02:50:00,24.4,20.8,30.34,SSW,203,0.0,0.0,86,0.00,,,0.00,0,Wunderground v.1.15,2013-11-29 10:50:00,
2013-11-29 02:55:00,24.1,20.2,30.34,SSW,203,0.0,0.0,85,0.00,,,0.00,0,Wunderground v.1.15,2013-11-29 10:55:00,
2013-11-29 03:00:00,24.0,20.4,30.34,SSW,203,0.0,0.0,86,0.00,,,0.00,0,Wunderground v.1.15,2013-11-29 11:00:00,
2013-11-29 03:10:00,23.5,19.7,30.34,SSW,203,1.0,1.0,85,0.00,,,0.00,0,Wunderground v.1.15,2013-11-29 11:10:00,
2013-11-29 03:20:00,23.1,19.5,30.34,SSW,203,0.0,0.0,86,0.00,,,0.00,0,Wunderground v.1.15,2013-11-29 11:20:00,
2013-11-29 03:25:00,23.3,20.0,30.34,SSW,203,0.0,0.0,87,0.00,,,0.00,0,Wunderground v.1.15,2013-11-29 11:25:00,
2013-11-29 03:30:00,23.6,20.3,30.34,SSW,201,1.0,1.0,87,0.00,,,0.00,0,Wunderground v.1.15,2013-11-29 11:30:00,
2013-11-29 03:35:00,24.2,20.6,30.34,SSW,201,0.0,1.0,86,0.00,,,0.00,0,Wunderground v.1.15,2013-11-29 11:35:00,
2013-11-29 03:40:00,24.4,20.5,30.34,SSW,201,0.0,0.0,85,0.00,,,0.00,0,Wunderground v.1.15,2013-11-29 11:40:00,
2013-11-29 03:45:00,24.3,20.4,30.34,SSW,201,0.0,0.0,85,0.00,,,0.00,0,Wunderground v.1.15,2013-11-29 11:45:00,
2013-11-29 03:55:00,24.1,20.2,30.34,SSW,201,0.0,0.0,85,0.00,,,0.00,0,Wunderground v.1.15,2013-11-29 11:55:00,
2013-11-29 04:00:00,23.9,20.0,30.34,SSW,201,0.0,0.0,85,0.00,,,0.00,0,Wunderground v.1.15,2013-11-29 12:00:00,
2013-11-29 04:10:00,23.5,19.7,30.34,SSW,201,0.0,0.0,85,0.00,,,0.00,0,Wunderground v.1.15,2013-11-29 12:10:00,
2013-11-29 04:15:00,23.4,19.8,30.34,SSW,201,0.0,0.0,86,0.00,,,0.00,0,Wunderground v.1.15,2013-11-29 12:15:00,
2013-11-29 04:20:00,23.2,19.6,30.35,SSW,201,0.0,0.0,86,0.00,,,0.00,0,Wunderground v.1.15,2013-11-29 12:20:00,
2013-11-29 04:30:00,23.4,20.1,30.35,SSW,201,0.0,0.0,87,0.00,,,0.00,0,Wunderground v.1.15,2013-11-29 12:30:00,
2013-11-29 04:35:00,23.5,19.9,30.35,SSW,201,0.0,0.0,86,0.00,,,0.00,0,Wunderground v.1.15,2013-11-29 12:35:00,
2013-11-29 04:40:00,23.4,19.8,30.34,SSW,201,0.0,0.0,86,0.00,,,0.00,0,Wunderground v.1.15,2013-11-29 12:40:00,
2013-11-29 04:45:00,23.2,19.6,30.34,SSW,201,0.0,0.0,86,0.00,,,0.00,0,Wunderground v.1.15,2013-11-29 12:45:00,
2013-11-29 04:50:00,22.8,19.5,30.34,SSW,201,0.0,0.0,87,0.00,,,0.00,0,Wunderground v.1.15,2013-11-29 12:50:00,
2013-11-29 05:00:00,22.3,19.0,30.35,SSW,201,0.0,0.0,87,0.00,,,0.00,0,Wunderground v.1.15,2013-11-29 13:00:00,
2013-11-29 05:10:00,21.5,18.2,30.34,SSW,201,0.0,0.0,87,0.00,,,0.00,0,Wunderground v.1.15,2013-11-29 13:10:00,
2013-11-29 05:15:00,21.9,19.2,30.34,SSW,200,0.0,0.0,89,0.00,,,0.00,0,Wunderground v.1.15,2013-11-29 13:15:00,
2013-11-29 05:20:00,22.3,19.3,30.34,SSW,200,0.0,0.0,88,0.00,,,0.00,0,Wunderground v.1.15,2013-11-29 13:20:00,
2013-11-29 05:25:00,22.2,19.2,30.34,SSW,200,0.0,0.0,88,0.00,,,0.00,0,Wunderground v.1.15,2013-11-29 13:25:00,
2013-11-29 05:35:00,22.3,19.6,30.35,SSW,200,0.0,0.0,89,0.00,,,0.00,0,Wunderground v.1.15,2013-11-29 13:35:00,
2013-11-29 05:40:00,22.7,19.9,30.35,SSW,200,0.0,0.0,89,0.00,,,0.00,0,Wunderground v.1.15,2013-11-29 13:40:00,
2013-11-29 05:45:00,23.1,20.3,30.35,SSW,200,0.0,0.0,89,0.00,,,0.00,0,Wunderground v.1.15,2013-11-29 13:45:00,
2013-11-29 05:50:00,23.3,20.3,30.35,SSW,200,0.0,0.0,88,0.00,,,0.00,0,Wunderground v.1.15,2013-11-29 13:50:00,
2013-11-29 05:55:00,23.2,19.9,30.35,SSW,200,0.0,0.0,87,0.00,,,0.00,0,Wunderground v.1.15,2013-11-29 13:55:00,
2013-11-29 06:05:00,22.8,19.8,30.35,SSW,200,0.0,0.0,88,0.00,,,0.00,0,Wunderground v.1.15,2013-11-29 14:05:00,
2013-11-29 06:10:00,23.1,20.1,30.35,SSW,200,0.0,0.0,88,0.00,,,0.00,0,Wunderground v.1.15,2013-11-29 14:10:00,
2013-11-29 06:15:00,23.5,20.5,30.36,SSW,200,0.0,0.0,88,0.00,,,0.00,0,Wunderground v.1.15,2013-11-29 14:15:00,
2013-11-29 06:20:00,23.3,20.0,30.35,SSW,200,0.0,0.0,87,0.00,,,0.00,0,Wunderground v.1.15,2013-11-29 14:20:00,
2013-11-29 06:25:00,23.2,19.9,30.35,SSW,200,0.0,0.0,87,0.00,,,0.00,0,Wunderground v.1.15,2013-11-29 14:25:00,
2013-11-29 06:30:00,23.0,19.7,30.35,SSW,200,0.0,0.0,87,0.00,,,0.00,0,Wunderground v.1.15,2013-11-29 14:30:00,
2013-11-29 06:35:00,22.6,19.0,30.35,SSW,200,0.0,0.0,86,0.00,,,0.00,0,Wunderground v.1.15,2013-11-29 14:35:00,
2013-11-29 06:45:00,22.7,19.7,30.36,SSW,200,0.0,0.0,88,0.00,,,0.00,0,Wunderground v.1.15,2013-11-29 14:45:00,
2013-11-29 06:50:00,22.9,19.6,30.36,SSW,200,0.0,0.0,87,0.00,,,0.00,0,Wunderground v.1.15,2013-11-29 14:50:00,
2013-11-29 06:55:00,22.7,19.4,30.36,SSW,200,0.0,0.0,87,0.00,,,0.00,0,Wunderground v.1.15,2013-11-29 14:55:00,
2013-11-29 07:05:00,22.9,19.9,30.36,SSW,200,0.0,0.0,88,0.00,,,0.00,0,Wunderground v.1.15,2013-11-29 15:05:00,
2013-11-29 07:10:00,23.4,20.1,30.36,SSW,200,0.0,0.0,87,0.00,,,0.00,0,Wunderground v.1.15,2013-11-29 15:10:00,
2013-11-29 07:20:00,23.1,19.5,30.36,SSW,200,0.0,0.0,86,0.00,,,0.00,7,Wunderground v.1.15,2013-11-29 15:20:00,
2013-11-29 07:25:00,23.0,19.7,30.37,SSW,200,0.0,0.0,87,0.00,,,0.00,11,Wunderground v.1.15,2013-11-29 15:25:00,
2013-11-29 07:30:00,22.8,19.5,30.36,SSW,200,0.0,0.0,87,0.00,,,0.00,16,Wunderground v.1.15,2013-11-29 15:30:00,
2013-11-29 07:35:00,22.9,19.6,30.36,SSW,200,0.0,0.0,87,0.00,,,0.00,19,Wunderground v.1.15,2013-11-29 15:35:00,
2013-11-29 07:40:00,23.2,19.9,30.37,SSW,200,0.0,0.0,87,0.00,,,0.00,25,Wunderground v.1.15,2013-11-29 15:40:00,
2013-11-29 07:50:00,23.5,20.2,30.37,SSW,200,0.0,0.0,87,0.00,,,0.00,32,Wunderground v.1.15,2013-11-29 15:50:00,
2013-11-29 07:55:00,23.6,20.3,30.36,SSW,200,0.0,0.0,87,0.00,,,0.00,33,Wunderground v.1.15,2013-11-29 15:55:00,
2013-11-29 08:05:00,24.2,20.9,30.36,SSW,200,0.0,0.0,87,0.00,,,0.00,39,Wunderground v.1.15,2013-11-29 16:05:00,
2013-11-29 08:10:00,25.1,21.8,30.37,SSW,200,0.0,0.0,87,0.00,,,0.00,51,Wunderground v.1.15,2013-11-29 16:10:00,
2013-11-29 08:15:00,26.2,22.6,30.36,SSW,200,0.0,1.0,86,0.00,,,0.00,56,Wunderground v.1.15,2013-11-29 16:15:00,
2013-11-29 08:25:00,27.9,23.7,30.36,SSW,194,3.0,3.0,84,0.00,,,0.00,70,Wunderground v.1.15,2013-11-29 16:25:00,
2013-11-29 08:30:00,28.3,23.8,30.36,South,186,2.0,3.0,83,0.00,,,0.00,70,Wunderground v.1.15,2013-11-29 16:30:00,
2013-11-29 08:35:00,28.3,23.5,30.36,SSW,200,2.0,7.0,82,0.00,,,0.00,98,Wunderground v.1.15,2013-11-29 16:35:00,
2013-11-29 08:40:00,28.2,23.7,30.36,SW,217,3.0,6.0,83,0.00,,,0.00,113,Wunderground v.1.15,2013-11-29 16:40:00,
2013-11-29 08:45:00,28.6,24.1,30.36,SW,218,4.0,6.0,83,0.00,,,0.00,134,Wunderground v.1.15,2013-11-29 16:45:00,
2013-11-29 08:55:00,30.1,25.3,30.36,SSW,202,4.0,4.0,82,0.00,,,0.00,156,Wunderground v.1.15,2013-11-29 16:55:00,
2013-11-29 09:05:00,32.1,26.6,30.36,SE,141,2.0,3.0,80,0.00,,,0.00,137,Wunderground v.1.15,2013-11-29 17:05:00,
2013-11-29 09:10:00,33.4,27.0,30.36,South,184,2.0,2.0,77,0.00,,,0.00,172,Wunderground v.1.15,2013-11-29 17:10:00,
2013-11-29 09:15:00,34.5,27.7,30.36,South,186,1.0,2.0,76,0.00,,,0.00,190,Wunderground v.1.15,2013-11-29 17:15:00,
2013-11-29 09:20:00,35.6,28.1,30.36,South,184,0.0,1.0,74,0.00,,,0.00,209,Wunderground v.1.15,2013-11-29 17:20:00,
2013-11-29 09:25:00,36.8,28.6,30.37,SSW,195,1.0,1.0,72,0.00,,,0.00,220,Wunderground v.1.15,2013-11-29 17:25:00,
2013-11-29 09:35:00,37.9,28.3,30.37,South,178,2.0,4.0,68,0.00,,,0.00,221,Wunderground v.1.15,2013-11-29 17:35:00,
2013-11-29 09:40:00,38.3,28.3,30.36,SSW,194,2.0,2.0,67,0.00,,,0.00,244,Wunderground v.1.15,2013-11-29 17:40:00,
2013-11-29 09:45:00,38.7,28.3,30.36,SSE,147,2.0,4.0,66,0.00,,,0.00,260,Wunderground v.1.15,2013-11-29 17:45:00,
2013-11-29 09:55:00,39.5,28.7,30.36,SSW,196,2.0,4.0,65,0.00,,,0.00,285,Wunderground v.1.15,2013-11-29 17:55:00,
2013-11-29 10:00:00,40.0,29.2,30.36,South,174,2.0,2.0,65,0.00,,,0.00,295,Wunderground v.1.15,2013-11-29 18:00:00,
2013-11-29 10:10:00,41.1,29.1,30.37,SSW,209,2.0,8.0,62,0.00,,,0.00,311,Wunderground v.1.15,2013-11-29 18:10:00,
2013-11-29 10:15:00,41.5,29.0,30.37,SSW,192,3.0,8.0,61,0.00,,,0.00,322,Wunderground v.1.15,2013-11-29 18:15:00,
2013-11-29 10:20:00,42.0,29.1,30.37,SSW,213,4.0,4.0,60,0.00,,,0.00,329,Wunderground v.1.15,2013-11-29 18:20:00,
2013-11-29 10:25:00,42.8,29.5,30.36,SSW,212,3.0,4.0,59,0.00,,,0.00,339,Wunderground v.1.15,2013-11-29 18:25:00,
2013-11-29 10:30:00,43.5,29.7,30.37,SSE,155,2.0,2.0,58,0.00,,,0.00,346,Wunderground v.1.15,2013-11-29 18:30:00,
2013-11-29 10:40:00,44.4,29.2,30.36,South,171,1.0,1.0,55,0.00,,,0.00,359,Wunderground v.1.15,2013-11-29 18:40:00,
2013-11-29 10:50:00,45.1,29.4,30.36,South,170,2.0,2.0,54,0.00,,,0.00,371,Wunderground v.1.15,2013-11-29 18:50:00,
2013-11-29 10:55:00,45.8,29.6,30.36,SSW,197,1.0,2.0,53,0.00,,,0.00,374,Wunderground v.1.15,2013-11-29 18:55:00,
2013-11-29 11:00:00,46.2,29.5,30.36,SSE,166,1.0,1.0,52,0.00,,,0.00,380,Wunderground v.1.15,2013-11-29 19:00:00,
2013-11-29 11:10:00,47.0,29.8,30.35,SSE,161,1.0,1.0,51,0.00,,,0.00,387,Wunderground v.1.15,2013-11-29 19:10:00,
2013-11-29 11:15:00,47.2,29.5,30.35,South,169,1.0,1.0,50,0.00,,,0.00,392,Wunderground v.1.15,2013-11-29 19:15:00,
2013-11-29 11:20:00,47.4,29.7,30.35,SW,234,0.0,6.0,50,0.00,,,0.00,396,Wunderground v.1.15,2013-11-29 19:20:00,
2013-11-29 11:25:00,47.7,29.5,30.35,SW,216,2.0,6.0,49,0.00,,,0.00,397,Wunderground v.1.15,2013-11-29 19:25:00,
2013-11-29 11:30:00,48.0,29.7,30.34,SW,227,4.0,4.0,49,0.00,,,0.00,397,Wunderground v.1.15,2013-11-29 19:30:00,
2013-11-29 11:40:00,49.0,29.1,30.34,SSE,164,1.0,1.0,46,0.00,,,0.00,399,Wunderground v.1.15,2013-11-29 19:40:00,
2013-11-29 11:45:00,49.0,29.1,30.34,SSE,166,0.0,1.0,46,0.00,,,0.00,401,Wunderground v.1.15,2013-11-29 19:45:00,
2013-11-29 11:50:00,49.4,28.9,30.34,South,173,0.0,0.0,45,0.00,,,0.00,406,Wunderground v.1.15,2013-11-29 19:50:00,
2013-11-29 11:55:00,50.4,29.8,30.33,South,173,0.0,0.0,45,0.00,,,0.00,406,Wunderground v.1.15,2013-11-29 19:55:00,
2013-11-29 12:00:00,51.1,29.9,30.33,South,180,0.0,0.0,44,0.00,,,0.00,406,Wunderground v.1.15,2013-11-29 20:00:00,
2013-11-29 12:10:00,51.2,30.0,30.33,South,189,0.0,4.0,44,0.00,,,0.00,413,Wunderground v.1.15,2013-11-29 20:10:00,
2013-11-29 12:15:00,51.4,29.6,30.32,South,178,0.0,4.0,43,0.00,,,0.00,417,Wunderground v.1.15,2013-11-29 20:15:00,
2013-11-29 12:25:00,52.5,29.5,30.32,South,177,1.0,1.0,41,0.00,,,0.00,438,Wunderground v.1.15,2013-11-29 20:25:00,
2013-11-29 12:30:00,53.6,29.8,30.31,SSW,197,1.0,2.0,40,0.00,,,0.00,441,Wunderground v.1.15,2013-11-29 20:30:00,
2013-11-29 12:35:00,53.9,30.1,30.31,SSW,202,1.0,2.0,40,0.00,,,0.00,445,Wunderground v.1.15,2013-11-29 20:35:00,
2013-11-29 12:40:00,54.5,30.0,30.31,SSW,212,1.0,6.0,39,0.00,,,0.00,425,Wunderground v.1.15,2013-11-29 20:40:00,
2013-11-29 12:45:00,54.8,30.3,30.31,South,175,1.0,6.0,39,0.00,,,0.00,394,Wunderground v.1.15,2013-11-29 20:45:00,
2013-11-29 12:50:00,55.2,30.0,30.30,SSW,200,1.0,3.0,38,0.00,,,0.00,218,Wunderground v.1.15,2013-11-29 20:50:00,
2013-11-29 13:00:00,53.9,29.5,30.30,SSW,202,1.0,1.0,39,0.00,,,0.00,371,Wunderground v.1.15,2013-11-29 21:00:00,
2013-11-29 13:10:00,54.5,30.0,30.30,SSW,199,0.0,0.0,39,0.00,,,0.00,320,Wunderground v.1.15,2013-11-29 21:10:00,
2013-11-29 13:15:00,55.1,29.9,30.30,SSW,196,0.0,0.0,38,0.00,,,0.00,220,Wunderground v.1.15,2013-11-29 21:15:00,
2013-11-29 13:20:00,54.7,30.2,30.29,South,189,0.0,0.0,39,0.00,,,0.00,292,Wunderground v.1.15,2013-11-29 21:20:00,
2013-11-29 13:25:00,55.0,29.8,30.29,South,186,0.0,0.0,38,0.00,,,0.00,188,Wunderground v.1.15,2013-11-29 21:25:00,
2013-11-29 13:35:00,55.0,30.5,30.29,South,180,0.0,0.0,39,0.00,,,0.00,176,Wunderground v.1.15,2013-11-29 21:35:00,
2013-11-29 13:40:00,55.1,30.6,30.29,South,182,0.0,0.0,39,0.00,,,0.00,265,Wunderground v.1.15,2013-11-29 21:40:00,
2013-11-29 13:45:00,55.8,30.5,30.29,South,182,0.0,0.0,38,0.00,,,0.00,294,Wunderground v.1.15,2013-11-29 21:45:00,
2013-11-29 13:50:00,56.1,30.8,30.29,South,182,0.0,0.0,38,0.00,,,0.00,260,Wunderground v.1.15,2013-11-29 21:50:00,
2013-11-29 13:55:00,55.8,29.9,30.29,South,181,0.0,0.0,37,0.00,,,0.00,301,Wunderground v.1.15,2013-11-29 21:55:00,
2013-11-29 14:00:00,55.6,30.4,30.28,South,181,0.0,0.0,38,0.00,,,0.00,315,Wunderground v.1.15,2013-11-29 22:00:00,
2013-11-29 14:10:00,56.3,30.3,30.28,South,180,0.0,0.0,37,0.00,,,0.00,172,Wunderground v.1.15,2013-11-29 22:10:00,
2013-11-29 14:15:00,55.4,30.2,30.28,South,180,0.0,0.0,38,0.00,,,0.00,176,Wunderground v.1.15,2013-11-29 22:15:00,
2013-11-29 14:20:00,54.8,30.3,30.28,South,180,0.0,0.0,39,0.00,,,0.00,172,Wunderground v.1.15,2013-11-29 22:20:00,
2013-11-29 14:25:00,54.6,30.1,30.28,South,169,0.0,0.0,39,0.00,,,0.00,149,Wunderground v.1.15,2013-11-29 22:25:00,
2013-11-29 14:30:00,54.6,30.1,30.28,SSE,167,0.0,0.0,39,0.00,,,0.00,128,Wunderground v.1.15,2013-11-29 22:30:00,
2013-11-29 14:40:00,53.8,31.2,30.29,NE,42,0.0,0.0,42,0.00,,,0.00,91,Wunderground v.1.15,2013-11-29 22:40:00,
2013-11-29 14:45:00,53.5,31.0,30.29,NE,42,0.0,0.0,42,0.00,,,0.00,76,Wunderground v.1.15,2013-11-29 22:45:00,
2013-11-29 14:50:00,52.8,31.5,30.29,NE,42,0.0,0.0,44,0.00,,,0.00,67,Wunderground v.1.15,2013-11-29 22:50:00,
2013-11-29 14:55:00,52.1,31.4,30.29,NE,42,0.0,0.0,45,0.00,,,0.00,58,Wunderground v.1.15,2013-11-29 22:55:00,
2013-11-29 15:05:00,51.0,31.5,30.28,NE,41,0.0,0.0,47,0.00,,,0.00,58,Wunderground v.1.15,2013-11-29 23:05:00,
2013-11-29 15:15:00,50.3,31.8,30.28,North,5,0.0,0.0,49,0.00,,,0.00,72,Wunderground v.1.15,2013-11-29 23:15:00,
2013-11-29 15:20:00,49.8,31.4,30.29,North,5,0.0,0.0,49,0.00,,,0.00,70,Wunderground v.1.15,2013-11-29 23:20:00,
2013-11-29 15:25:00,49.0,31.6,30.29,North,5,0.0,0.0,51,0.00,,,0.00,62,Wunderground v.1.15,2013-11-29 23:25:00,
2013-11-29 15:30:00,48.5,31.7,30.29,North,5,0.0,0.0,52,0.00,,,0.00,49,Wunderground v.1.15,2013-11-29 23:30:00,
2013-11-29 15:35:00,48.1,31.3,30.29,North,5,0.0,0.0,52,0.00,,,0.00,40,Wunderground v.1.15,2013-11-29 23:35:00,
2013-11-29 15:40:00,47.9,31.6,30.29,North,5,0.0,0.0,53,0.00,,,0.00,32,Wunderground v.1.15,2013-11-29 23:40:00,
2013-11-29 15:50:00,47.1,31.3,30.29,North,5,0.0,0.0,54,0.00,,,0.00,19,Wunderground v.1.15,2013-11-29 23:50:00,
2013-11-29 15:55:00,46.5,31.2,30.30,North,5,0.0,0.0,55,0.00,,,0.00,16,Wunderground v.1.15,2013-11-29 23:55:00,
2013-11-29 16:05:00,45.8,31.0,30.30,North,360,0.0,0.0,56,0.00,,,0.00,9,Wunderground v.1.15,2013-11-30 00:05:00,
2013-11-29 16:10:00,45.4,31.0,30.30,North,5,0.0,0.0,57,0.00,,,0.00,7,Wunderground v.1.15,2013-11-30 00:10:00,
2013-11-29 16:15:00,45.0,30.7,30.31,NNE,19,0.0,0.0,57,0.00,,,0.00,5,Wunderground v.1.15,2013-11-30 00:15:00,
2013-11-29 16:25:00,44.5,30.6,30.31,NNE,27,1.0,3.0,58,0.00,,,0.00,0,Wunderground v.1.15,2013-11-30 00:25:00,
2013-11-29 16:30:00,44.3,30.4,30.31,NNE,33,2.0,2.0,58,0.00,,,0.00,0,Wunderground v.1.15,2013-11-30 00:30:00,
2013-11-29 16:35:00,44.1,30.3,30.31,NE,38,2.0,3.0,58,0.00,,,0.00,0,Wunderground v.1.15,2013-11-30 00:35:00,
2013-11-29 16:40:00,44.2,30.3,30.31,NE,38,1.0,1.0,58,0.00,,,0.00,0,Wunderground v.1.15,2013-11-30 00:40:00,
2013-11-29 16:45:00,44.2,30.3,30.31,NE,38,0.0,1.0,58,0.00,,,0.00,0,Wunderground v.1.15,2013-11-30 00:45:00,
2013-11-29 16:55:00,44.0,30.2,30.32,NE,38,0.0,0.0,58,0.00,,,0.00,0,Wunderground v.1.15,2013-11-30 00:55:00,
2013-11-29 17:05:00,44.1,30.3,30.31,NE,38,0.0,0.0,58,0.00,,,0.00,0,Wunderground v.1.15,2013-11-30 01:05:00,
2013-11-29 17:10:00,44.2,30.3,30.31,NE,38,0.0,0.0,58,0.00,,,0.00,0,Wunderground v.1.15,2013-11-30 01:10:00,
2013-11-29 17:15:00,44.4,30.1,30.31,NE,38,0.0,0.0,57,0.00,,,0.00,0,Wunderground v.1.15,2013-11-30 01:15:00,
2013-11-29 17:20:00,44.5,30.2,30.31,NE,38,0.0,0.0,57,0.00,,,0.00,0,Wunderground v.1.15,2013-11-30 01:20:00,
2013-11-29 17:25:00,44.2,29.9,30.31,NE,38,0.0,0.0,57,0.00,,,0.00,0,Wunderground v.1.15,2013-11-30 01:25:00,
2013-11-29 17:30:00,43.7,29.9,30.31,NE,38,0.0,0.0,58,0.00,,,0.00,0,Wunderground v.1.15,2013-11-30 01:30:00,
2013-11-29 17:35:00,43.1,29.7,30.31,NE,38,0.0,0.0,59,0.00,,,0.00,0,Wunderground v.1.15,2013-11-30 01:35:00,
2013-11-29 17:40:00,42.8,29.9,30.31,NE,38,0.0,0.0,60,0.00,,,0.00,0,Wunderground v.1.15,2013-11-30 01:40:00,
2013-11-29 17:45:00,42.7,30.2,30.31,NE,38,0.0,0.0,61,0.00,,,0.00,0,Wunderground v.1.15,2013-11-30 01:45:00,
2013-11-29 17:55:00,42.3,29.8,30.31,NE,38,0.0,0.0,61,0.00,,,0.00,0,Wunderground v.1.15,2013-11-30 01:55:00,
2013-11-29 18:00:00,42.1,30.0,30.31,NE,38,0.0,0.0,62,0.00,,,0.00,0,Wunderground v.1.15,2013-11-30 02:00:00,
2013-11-29 18:10:00,41.8,30.1,30.31,NE,38,0.0,0.0,63,0.00,,,0.00,0,Wunderground v.1.15,2013-11-30 02:10:00,
2013-11-29 18:15:00,41.7,30.0,30.31,NE,38,0.0,0.0,63,0.00,,,0.00,0,Wunderground v.1.15,2013-11-30 02:15:00,
2013-11-29 18:20:00,41.7,30.0,30.31,NE,38,0.0,0.0,63,0.00,,,0.00,0,Wunderground v.1.15,2013-11-30 02:20:00,
2013-11-29 18:25:00,41.6,29.9,30.31,NE,38,0.0,0.0,63,0.00,,,0.00,0,Wunderground v.1.15,2013-11-30 02:25:00,
2013-11-29 18:30:00,41.4,29.7,30.31,NE,38,0.0,0.0,63,0.00,,,0.00,0,Wunderground v.1.15,2013-11-30 02:30:00,
2013-11-29 18:40:00,41.4,29.3,30.31,NE,38,0.0,0.0,62,0.00,,,0.00,0,Wunderground v.1.15,2013-11-30 02:40:00,
2013-11-29 18:45:00,41.0,29.7,30.31,NE,38,0.0,0.0,64,0.00,,,0.00,0,Wunderground v.1.15,2013-11-30 02:45:00,
2013-11-29 18:55:00,40.4,29.6,30.31,NE,38,0.0,0.0,65,0.00,,,0.00,0,Wunderground v.1.15,2013-11-30 02:55:00,
2013-11-29 19:00:00,40.8,29.9,30.31,NE,38,0.0,0.0,65,0.00,,,0.00,0,Wunderground v.1.15,2013-11-30 03:00:00,
2013-11-29 19:10:00,41.5,30.2,30.31,NE,38,0.0,0.0,64,0.00,,,0.00,0,Wunderground v.1.15,2013-11-30 03:10:00,
2013-11-29 19:15:00,41.5,30.2,30.32,NE,38,0.0,0.0,64,0.00,,,0.00,0,Wunderground v.1.15,2013-11-30 03:15:00,
2013-11-29 19:20:00,41.7,30.4,30.32,NE,38,0.0,0.0,64,0.00,,,0.00,0,Wunderground v.1.15,2013-11-30 03:20:00,
2013-11-29 19:25:00,42.0,30.3,30.32,NE,38,0.0,0.0,63,0.00,,,0.00,0,Wunderground v.1.15,2013-11-30 03:25:00,
2013-11-29 19:30:00,42.2,30.5,30.32,NE,38,0.0,0.0,63,0.00,,,0.00,0,Wunderground v.1.15,2013-11-30 03:30:00,
2013-11-29 19:35:00,42.5,30.4,30.32,NE,38,0.0,0.0,62,0.00,,,0.00,0,Wunderground v.1.15,2013-11-30 03:35:00,
2013-11-29 19:45:00,42.1,30.0,30.32,NE,38,0.0,0.0,62,0.00,,,0.00,0,Wunderground v.1.15,2013-11-30 03:45:00,
2013-11-29 19:55:00,42.2,30.1,30.32,NE,38,0.0,0.0,62,0.00,,,0.00,0,Wunderground v.1.15,2013-11-30 03:55:00,
2013-11-29 20:00:00,42.1,30.4,30.32,NE,38,0.0,0.0,63,0.00,,,0.00,0,Wunderground v.1.15,2013-11-30 04:00:00,
2013-11-29 20:10:00,41.9,30.2,30.33,NE,38,0.0,0.0,63,0.00,,,0.00,0,Wunderground v.1.15,2013-11-30 04:10:00,
2013-11-29 20:20:00,42.0,30.3,30.33,NE,38,0.0,0.0,63,0.00,,,0.00,0,Wunderground v.1.15,2013-11-30 04:20:00,
2013-11-29 20:25:00,42.0,30.3,30.33,NE,38,0.0,0.0,63,0.00,,,0.00,0,Wunderground v.1.15,2013-11-30 04:25:00,
2013-11-29 20:30:00,42.0,30.3,30.33,NE,38,0.0,0.0,63,0.00,,,0.00,0,Wunderground v.1.15,2013-11-30 04:30:00,
2013-11-29 20:35:00,42.1,30.4,30.34,NE,38,0.0,0.0,63,0.00,,,0.00,0,Wunderground v.1.15,2013-11-30 04:35:00,
2013-11-29 20:45:00,42.4,30.3,30.34,NE,38,0.0,0.0,62,0.00,,,0.00,0,Wunderground v.1.15,2013-11-30 04:45:00,
2013-11-29 20:55:00,42.2,30.5,30.34,NE,38,0.0,0.0,63,0.00,,,0.00,0,Wunderground v.1.15,2013-11-30 04:55:00,
2013-11-29 21:00:00,42.0,30.3,30.34,NE,38,0.0,0.0,63,0.00,,,0.00,0,Wunderground v.1.15,2013-11-30 05:00:00,
2013-11-29 21:05:00,41.8,30.1,30.34,NE,38,0.0,0.0,63,0.00,,,0.00,0,Wunderground v.1.15,2013-11-30 05:05:00,
2013-11-29 21:10:00,41.8,30.5,30.34,NE,38,0.0,0.0,64,0.00,,,0.00,0,Wunderground v.1.15,2013-11-30 05:10:00,
2013-11-29 21:15:00,41.8,30.5,30.34,NE,38,0.0,0.0,64,0.00,,,0.00,0,Wunderground v.1.15,2013-11-30 05:15:00,
2013-11-29 21:20:00,41.7,30.4,30.34,NE,38,0.0,0.0,64,0.00,,,0.00,0,Wunderground v.1.15,2013-11-30 05:20:00,
2013-11-29 21:30:00,41.6,30.3,30.34,NE,38,0.0,0.0,64,0.00,,,0.00,0,Wunderground v.1.15,2013-11-30 05:30:00,
2013-11-29 21:35:00,41.6,30.3,30.35,NE,38,0.0,0.0,64,0.00,,,0.00,0,Wunderground v.1.15,2013-11-30 05:35:00,
2013-11-29 21:40:00,42.0,30.3,30.35,NE,38,0.0,0.0,63,0.00,,,0.00,0,Wunderground v.1.15,2013-11-30 05:40:00,
2013-11-29 21:45:00,42.2,30.5,30.35,NE,38,0.0,0.0,63,0.00,,,0.00,0,Wunderground v.1.15,2013-11-30 05:45:00,
2013-11-29 21:50:00,42.3,30.6,30.35,NE,38,0.0,0.0,63,0.00,,,0.00,0,Wunderground v.1.15,2013-11-30 05:50:00,
2013-11-29 21:55:00,42.2,30.5,30.35,NE,38,0.0,0.0,63,0.00,,,0.00,0,Wunderground v.1.15,2013-11-30 05:55:00,
2013-11-29 22:00:00,41.8,30.1,30.35,NE,38,0.0,0.0,63,0.00,,,0.00,0,Wunderground v.1.15,2013-11-30 06:00:00,
2013-11-29 22:10:00,41.4,30.1,30.35,NE,38,0.0,0.0,64,0.00,,,0.00,0,Wunderground v.1.15,2013-11-30 06:10:00,
2013-11-29 22:15:00,41.4,30.1,30.35,NE,38,0.0,0.0,64,0.00,,,0.00,0,Wunderground v.1.15,2013-11-30 06:15:00,
2013-11-29 22:20:00,41.4,30.1,30.35,NE,38,0.0,0.0,64,0.00,,,0.00,0,Wunderground v.1.15,2013-11-30 06:20:00,
2013-11-29 22:25:00,41.3,30.0,30.35,NE,38,0.0,0.0,64,0.00,,,0.00,0,Wunderground v.1.15,2013-11-30 06:25:00,
2013-11-29 22:35:00,41.0,30.1,30.35,NE,38,0.0,0.0,65,0.00,,,0.00,0,Wunderground v.1.15,2013-11-30 06:35:00,
2013-11-29 22:40:00,41.0,30.1,30.35,NE,38,0.0,0.0,65,0.00,,,0.00,0,Wunderground v.1.15,2013-11-30 06:40:00,
2013-11-29 22:50:00,41.2,29.9,30.35,NE,38,0.0,0.0,64,0.00,,,0.00,0,Wunderground v.1.15,2013-11-30 06:50:00,
2013-11-29 22:55:00,41.2,29.9,30.36,NE,38,0.0,0.0,64,0.00,,,0.00,0,Wunderground v.1.15,2013-11-30 06:55:00,
2013-11-29 23:00:00,41.1,29.8,30.36,NE,38,0.0,0.0,64,0.00,,,0.00,0,Wunderground v.1.15,2013-11-30 07:00:00,
2013-11-29 23:10:00,41.1,29.8,30.36,NE,38,0.0,0.0,64,0.00,,,0.00,0,Wunderground v.1.15,2013-11-30 07:10:00,
2013-11-29 23:15:00,41.2,29.9,30.36,NE,38,0.0,0.0,64,0.00,,,0.00,0,Wunderground v.1.15,2013-11-30 07:15:00,
2013-11-29 23:20:00,41.1,29.8,30.36,NE,38,0.0,0.0,64,0.00,,,0.00,0,Wunderground v.1.15,2013-11-30 07:20:00,
2013-11-29 23:25:00,40.9,30.0,30.36,NE,38,0.0,0.0,65,0.00,,,0.00,0,Wunderground v.1.15,2013-11-30 07:25:00,
2013-11-29 23:30:00,40.8,30.3,30.36,NE,38,0.0,0.0,66,0.00,,,0.00,0,Wunderground v.1.15,2013-11-30 07:30:00,
2013-11-29 23:40:00,40.4,29.9,30.36,NE,38,0.0,0.0,66,0.00,,,0.00,0,Wunderground v.1.15,2013-11-30 07:40:00,
2013-11-29 23:50:00,39.5,28.3,30.35,SE,130,0.0,0.0,64,0.00,,,0.00,0,Wunderground v.1.15,2013-11-30 07:50:00,
2013-11-29 23:55:00,39.4,28.6,30.35,SE,130,0.0,0.0,65,0.00,,,0.00,0,Wunderground v.1.15,2013-11-30 07:55:00,